Home   Weather   Samarkand   Past weeks

Flag for Uzbekistan Past Weather in Samarkand, Uzbekistan — Yesterday and Last 2 Weeks

Now
61 °F

Clear.


Feels Like: 61 °F
Forecast: 50 / 79 °F
Wind: 9 mph from East

Location: Samarkand

Current Time: Apr 23, 2017 at 9:19:58 pm

Latest Report: Apr 23, 2017 at 8:30 pm


Visibility: 4 mi

Pressure: 30.15 "Hg (27.69 "Hg at 721m altitude)

Humidity: 52%

Dew Point: 43 °F

Location of SamarkandLocation

Past Weather in Samarkand — Graph

°F

Samarkand Temperature Yesterday

Maximum temperature yesterday: 70 °F (at 3:00 pm)
Minimum temperature yesterday: 45 °F (at 4:00 am)
Average temperature yesterday: 58 °F

High & Low Weather Summary for the Past Weeks

 TemperatureHumidityPressure
High86 °F (Apr 15, 1:00 pm)100% (Apr 18, 2:00 am)30.42 "Hg (Apr 18, 2:00 am)
Low45 °F (Apr 9, 1:30 am)13% (Apr 9, 2:00 pm)29.80 "Hg (Apr 20, 2:30 am)
Average62 °F56%30.05 "Hg
* Reported Apr 8 8:00 pm — Apr 23 8:00 pm, Samarkand, Weather by CustomWeather, © 2017

Note: Actual official high and low records may vary slightly from our data, if they occured in-between our weather recording intervals... More about our weather records

Advertising

Samarkand Weather History for the Previous 24 Hours

Scroll right to see more
 ConditionsComfort  
Time TempWeatherWind HumidityBarometerVisibility
8:00 pm
Sun, Apr 23
63 °FClear.9 mph45%30.15 "Hg4 mi
7:30 pm63 °FClear.9 mph49%30.15 "HgN/A
7:00 pm66 °FClear.9 mph43%30.15 "HgN/A
6:30 pm70 °FClear.12 mph33%30.15 "HgN/A
6:00 pm73 °FClear.2 mph29%30.15 "HgN/A
5:30 pm75 °FClear.No wind24%30.15 "HgN/A
4:30 pm73 °FClear.5 mph29%30.15 "HgN/A
4:00 pm73 °FClear.5 mph25%30.15 "HgN/A
3:30 pm73 °FClear.5 mph27%30.15 "HgN/A
3:00 pm73 °FClear.7 mph29%30.18 "HgN/A
2:30 pm73 °FClear.7 mph27%30.18 "HgN/A
2:00 pm73 °FClear.5 mph22%30.18 "HgN/A
1:30 pm73 °FClear.7 mph27%30.18 "HgN/A
1:00 pm73 °FClear.7 mph25%30.21 "HgN/A
12:30 pm73 °FClear.2 mph25%30.21 "HgN/A
12:00 pm72 °FClear.2 mph25%30.21 "HgN/A
11:30 am72 °FClear.2 mph31%30.21 "HgN/A
11:00 am72 °FClear.5 mph33%30.21 "HgN/A
10:30 am70 °FClear.5 mph40%30.21 "HgN/A
10:00 am68 °FClear.5 mph40%30.21 "HgN/A
9:30 am66 °FClear.5 mph46%30.21 "HgN/A
9:00 am64 °FClear.2 mph52%30.21 "HgN/A
8:30 am64 °FClear.5 mph52%30.21 "HgN/A
7:30 am57 °FClear.5 mph63%30.18 "HgN/A
7:00 am54 °FClear.7 mph72%30.18 "HgN/A
6:30 am52 °FClear.5 mph77%30.15 "HgN/A
6:00 am50 °FClear.7 mph82%30.15 "HgN/A
5:30 am48 °FClear.5 mph82%30.15 "Hg4 mi
5:00 am52 °FClear.7 mph77%30.15 "Hg4 mi
4:30 am50 °FClear.7 mph76%30.15 "Hg4 mi
4:00 am52 °FClear.5 mph77%30.12 "Hg4 mi
3:30 am54 °FClear.9 mph72%30.12 "Hg4 mi
2:30 am54 °FClear.9 mph77%30.12 "Hg4 mi
2:00 am54 °FClear.7 mph77%30.15 "Hg4 mi
1:30 am55 °FClear.7 mph72%30.15 "Hg4 mi
12:30 am55 °FClear.7 mph67%30.15 "Hg4 mi
11:30 pm
Sat, Apr 22
57 °FClear.5 mph63%30.15 "Hg4 mi
11:00 pm57 °FClear.5 mph63%30.15 "Hg4 mi
10:30 pm57 °FClear.7 mph63%30.15 "Hg4 mi
9:30 pm57 °FClear.7 mph63%30.15 "Hg4 mi
9:00 pm57 °FClear.9 mph63%30.15 "Hg4 mi
Weather by CustomWeather, © 2017

See weather overviewHow to use our weather pages